Temp
55 55 54 53 53 53 52 52 51 51 51 51 52 51 52 52 52 50 50 50 50 51 53 53 54 54 53 52 52 53 52 53 51 55 56 57 59 59 60 61 61 61 62
55 54 53 53 52 51 51 52 52 51 51 51 51 51 51 51 51 50 50 51 52 52 54 53 53 55 53 53 52 52 52 53 52 50 54 56 56 59 59 59 59 63 62
55 54 52 51 51 50 51 52 52 51 52 51 51 51 51 51 51 51 51 52 52 52 52 52 53 53 53 53 53 53 53 53 52 52 53 54 56 57 58 58 58 59 60
54 53 52 51 51 51 52 52 51 52 50 50 50 51 52 52 52 53 52 52 52 53 53 52 53 53 53 54 53 53 53 53 52 52 52 53 55 57 56 56 56 57 58
53 53 52 52 52 52 51 52 52 51 51 50 50 51 52 52 54 53 52 52 50 50 51 53 54 55 57 56 54 54 54 53 52 52 52 53 53 53 55 55 55 56 57
53 53 53 53 53 51 51 51 51 50 50 50 50 50 51 52 50 51 53 52 51 50 50 52 55 57 58 57 57 56 55 54 53 52 53 52 53 53 54 54 55 54 53
53 53 54 54 53 52 52 51 50 49 49 49 49 50 50 51 49 49 50 52 51 48 51 52 55 57 56 57 55 55 55 54 55 54 53 52 53 55 54 52 54 54 56
53 54 55 54 52 52 52 51 50 49 48 48 49 50 50 51 49 48 49 51 51 52 53 54 55 56 54 53 55 57 55 56 55 56 55 55 55 57 55 56 56 56 56
54 54 55 55 53 52 51 51 51 49 48 48 49 50 50 50 48 46 48 50 52 54 55 56 56 55 46 45 55 55 53 54 54 51 51 50 48 48 52 57 54 53 52
56 56 57 55 53 52 52 52 51 49 49 49 50 50 50 50 46 45 45 51 52 52 53 55 51 53 45 43 55 55 54 54 56 56 55 54 53 54 51 58 57 53 52
60 58 55 55 53 53 53 51 51 51 49 48 48 50 50 49 49 45 43 49 52 52 53 56 56 49 45 42 47 55 54 54 55 57 57 56 56 54 55 58 59 56 55
59 56 55 56 56 56 51 53 51 50 48 49 48 50 51 50 47 47 45 44 48 52 54 54 55 47 46 46 48 44 45 48 54 55 55 55 55 56 56 58 56 58 58
56 56 55 57 57 54 53 52 52 50 49 50 50 50 51 52 50 46 45 45 46 51 55 52 47 45 44 48 48 47 47 55 56 55 54 53 55 56 57 56 57 57 56
53 53 56 56 56 56 53 53 53 53 52 51 50 50 50 50 50 51 53 52 48 52 50 53 50 49 46 50 53 55 58 57 56 55 54 54 55 54 55 58 57 55 53
52 53 53 54 54 55 54 54 52 54 54 55 54 53 51 51 53 49 50 52 52 49 46 51 54 56 57 58 58 58 59 58 57 56 56 55 57 58 56 57 56 54 53
46 49 50 52 53 54 53 53 48 47 46 44 45 50 54 49 46 42 41 41 41 41 47 51 53 54 56 58 59 59 59 56 59 58 57 59 56 57 56 56 58 58 57
42 44 46 46 48 49 50 51 50 53 44 44 43 43 42 48 43 39 39 40 39 39 49 53 53 54 56 57 59 59 57 61 60 60 60 60 60 59 56 59 60 59 58
41 42 42 43 45 46 47 47 49 49 50 53 50 44 43 41 42 42 38 40 43 41 47 52 54 55 56 57 58 60 59 60 60 61 60 61 61 61 60 58 61 60 60
40 41 40 41 43 43 44 44 45 44 45 47 49 49 47 41 40 40 39 51 51 51 50 51 54 56 56 57 57 59 59 58 60 60 61 61 61 62 61 62 62 51 54
38 39 38 37 37 37 39 38 39 40 41 42 43 44 47 45 45 47 44 48 52 54 55 55 56 56 57 58 58 58 59 59 59 60 61 62 62 63 64 63 63 62 62
37 37 36 36 35 35 35 34 35 36 37 38 39 42 35 38 40 45 49 49 51 54 55 56 57 57 59 58 59 58 58 61 62 61 61 61 62 62 63 64 65 65 66
37 37 37 36 36 35 34 34 34 34 35 35 35 38 37 39 40 40 44 47 53 54 57 57 58 58 59 60 60 59 59 60 62 61 62 62 62 63 64 64 64 64 63
36 37 37 36 36 35 35 35 35 35 35 36 36 37 37 37 38 40 40 41 44 48 55 57 57 59 60 60 61 62 61 61 63 63 63 61 62 62 63 64 64 63 62
36 36 36 36 36 35 35 35 36 35 35 36 36 36 36 37 38 40 41 41 42 44 47 54 57 59 60 59 60 62 63 64 65 64 64 64 62 56 64 64 65 64 64
36 36 36 35 35 34 34 35 35 35 36 36 36 36 36 36 36 37 38 41 42 41 44 46 52 58 59 60 60 61 57 44 59 53 63 64 64 62 63 64 65 66 64
37 36 36 36 36 36 35 34 34 35 35 36 36 35 35 35 36 37 37 39 41 42 44 46 47 51 58 60 60 54 44 42 49 43 61 62 63 64 64 64 65 66 66
MSLP
1018.49 1018.74 1018.93 1018.99 1019.01 1018.86 1018.77 1018.66 1018.69 1018.54 1018.39 1018.21 1017.87 1017.48 1016.98 1016.43 1016.06 1015.93 1015.74 1015.33 1014.98 1014.68 1014.39 1014.34 1014.01 1013.83 1013.84 1014.00 1013.98 1013.92 1013.87 1013.78 1013.54 1013.18 1013.28 1013.06 1012.72 1012.42 1012.21 1012.15 1012.18 1012.19 1012.20
1018.33 1018.62 1018.85 1018.98 1018.97 1018.68 1018.59 1018.31 1018.31 1018.25 1018.06 1017.88 1017.60 1017.24 1016.72 1016.22 1015.89 1015.81 1015.51 1015.17 1014.58 1014.31 1013.92 1013.85 1013.55 1013.34 1013.34 1013.32 1013.31 1013.28 1013.26 1013.20 1013.32 1013.09 1013.04 1012.91 1012.62 1012.37 1012.23 1012.15 1012.03 1011.92 1011.99
1018.18 1018.44 1018.71 1018.82 1018.77 1018.39 1018.20 1017.98 1018.03 1017.91 1017.66 1017.47 1017.28 1016.98 1016.49 1016.00 1015.61 1015.57 1015.46 1015.15 1014.50 1013.98 1013.62 1013.40 1013.01 1012.89 1012.67 1012.48 1012.52 1012.64 1012.61 1012.74 1012.87 1012.86 1012.68 1012.64 1012.42 1012.37 1012.20 1012.07 1011.97 1011.91 1011.86
1018.11 1018.30 1018.42 1018.47 1018.25 1017.90 1017.81 1017.70 1017.68 1017.51 1017.37 1017.10 1016.86 1016.58 1016.20 1015.83 1015.49 1015.20 1015.17 1014.90 1014.41 1013.88 1013.35 1012.92 1012.52 1012.27 1011.98 1011.89 1011.96 1011.93 1012.01 1012.20 1012.40 1012.51 1012.40 1012.35 1012.30 1012.10 1012.13 1011.96 1011.81 1011.79 1011.72
1017.93 1018.00 1017.89 1017.80 1017.70 1017.52 1017.48 1017.45 1017.32 1017.11 1016.89 1016.67 1016.48 1016.09 1015.81 1015.43 1015.18 1014.97 1014.70 1014.43 1014.08 1013.51 1013.05 1012.50 1011.97 1011.46 1011.12 1011.27 1011.41 1011.32 1011.47 1011.67 1011.87 1011.97 1011.97 1011.93 1011.92 1011.94 1011.76 1011.64 1011.68 1011.67 1011.59
1017.50 1017.52 1017.47 1017.33 1017.24 1017.26 1017.13 1017.14 1017.02 1016.69 1016.46 1016.23 1015.97 1015.77 1015.50 1015.13 1014.77 1014.52 1014.32 1013.97 1013.58 1013.18 1012.59 1011.94 1011.52 1011.06 1010.74 1010.71 1010.76 1010.85 1010.89 1011.02 1011.16 1011.39 1011.44 1011.47 1011.40 1011.52 1011.55 1011.50 1011.47 1011.60 1011.44
1016.97 1016.93 1016.88 1016.86 1016.87 1016.78 1016.69 1016.67 1016.57 1016.39 1016.16 1015.86 1015.55 1015.38 1015.12 1014.77 1014.41 1014.16 1013.90 1013.65 1013.21 1012.82 1012.29 1011.80 1011.25 1011.09 1010.95 1010.86 1010.83 1010.84 1010.80 1010.81 1010.85 1010.95 1010.99 1011.10 1011.06 1010.97 1011.05 1011.08 1011.07 1011.03 1011.00
1016.59 1016.50 1016.30 1016.24 1016.31 1016.19 1016.32 1016.13 1015.97 1015.97 1015.78 1015.51 1015.15 1014.93 1014.78 1014.33 1014.12 1013.85 1013.64 1013.22 1012.74 1012.22 1011.87 1011.41 1011.20 1011.01 1010.99 1010.99 1010.85 1010.63 1010.52 1010.48 1010.50 1010.45 1010.60 1010.57 1010.58 1010.62 1010.70 1010.62 1010.61 1010.79 1011.01
1015.91 1015.77 1015.56 1015.52 1015.61 1015.63 1015.72 1015.52 1015.37 1015.50 1015.33 1015.04 1014.79 1014.53 1014.40 1013.96 1013.73 1013.58 1013.44 1013.07 1012.32 1011.91 1011.50 1011.24 1011.09 1010.98 1010.92 1010.76 1010.66 1010.55 1010.52 1010.57 1010.44 1010.41 1010.35 1010.29 1010.18 1010.15 1010.23 1010.33 1010.28 1010.50 1010.63
1014.85 1014.67 1014.58 1014.70 1014.83 1014.89 1014.82 1014.85 1014.83 1014.89 1014.80 1014.62 1014.28 1014.04 1013.85 1013.72 1013.40 1013.32 1013.22 1012.97 1012.37 1011.86 1011.52 1011.27 1011.14 1011.04 1010.87 1010.66 1010.43 1010.51 1010.55 1010.61 1010.45 1010.44 1010.33 1010.26 1010.01 1009.83 1009.81 1009.96 1009.97 1010.12 1010.44
1013.65 1013.72 1013.80 1013.75 1013.92 1013.93 1014.06 1014.23 1014.15 1014.26 1014.33 1014.09 1013.88 1013.53 1013.39 1013.26 1013.01 1012.98 1012.94 1012.86 1012.44 1011.89 1011.55 1011.26 1011.11 1011.06 1010.91 1010.73 1010.59 1010.57 1010.60 1010.53 1010.43 1010.33 1010.28 1010.25 1010.16 1009.95 1009.88 1009.85 1009.95 1010.08 1010.35
1013.97 1013.93 1013.62 1013.27 1013.05 1012.97 1013.37 1013.28 1013.46 1013.60 1013.74 1013.56 1013.35 1012.90 1012.70 1012.61 1012.48 1012.47 1012.38 1012.43 1012.26 1012.02 1011.43 1011.30 1011.09 1010.96 1010.97 1010.78 1010.67 1010.66 1010.53 1010.43 1010.41 1010.34 1010.29 1010.24 1010.20 1010.12 1010.16 1010.13 1010.07 1010.11 1010.25
1013.06 1013.20 1013.05 1012.36 1012.01 1012.21 1012.56 1012.52 1012.67 1012.73 1013.05 1012.92 1012.79 1012.47 1012.04 1011.94 1011.98 1011.87 1011.92 1011.79 1011.73 1011.69 1011.32 1011.06 1010.97 1010.91 1010.79 1010.70 1010.68 1010.48 1010.25 1010.27 1010.23 1010.16 1010.05 1010.14 1010.16 1010.28 1010.36 1010.34 1010.38 1010.56 1010.68
1013.35 1013.35 1012.85 1012.34 1011.89 1011.72 1011.79 1011.71 1012.11 1012.02 1012.01 1012.01 1011.90 1011.70 1011.39 1011.28 1011.31 1011.32 1011.30 1011.40 1011.32 1011.20 1011.15 1010.86 1010.69 1010.66 1010.60 1010.47 1010.26 1010.16 1009.91 1009.94 1009.88 1009.91 1009.98 1010.11 1010.36 1010.46 1010.46 1010.50 1010.69 1010.97 1011.25
1014.56 1014.31 1013.41 1012.47 1012.18 1011.69 1011.40 1011.20 1010.95 1010.68 1011.07 1011.00 1010.81 1010.67 1010.62 1010.46 1010.05 1010.21 1010.47 1010.69 1010.82 1010.91 1011.10 1010.81 1010.46 1010.26 1010.11 1009.89 1009.72 1009.57 1009.60 1009.72 1009.67 1009.77 1009.96 1010.12 1010.32 1010.46 1010.62 1010.77 1010.91 1011.14 1011.30
1016.09 1015.10 1014.52 1013.59 1012.73 1012.32 1011.61 1010.97 1010.72 1010.22 1009.82 1009.66 1009.30 1009.54 1009.53 1009.28 1009.09 1009.31 1009.68 1010.16 1010.57 1010.79 1010.99 1010.57 1010.14 1009.93 1009.63 1009.46 1009.27 1009.17 1009.15 1009.22 1009.31 1009.49 1009.81 1009.86 1010.15 1010.35 1010.62 1010.90 1010.95 1011.13 1011.36
1017.35 1016.27 1015.49 1014.64 1013.91 1013.39 1012.62 1011.63 1010.68 1009.57 1009.44 1009.06 1008.85 1008.82 1008.47 1008.55 1008.56 1008.69 1009.03 1009.62 1010.14 1010.61 1010.26 1009.88 1009.68 1009.41 1009.14 1009.00 1008.94 1008.88 1008.72 1008.70 1008.99 1009.13 1009.47 1009.61 1009.85 1010.11 1010.42 1010.69 1010.85 1011.15 1011.47
1017.85 1017.10 1016.45 1015.59 1014.98 1014.32 1013.51 1012.79 1012.07 1010.99 1009.90 1008.90 1008.34 1008.21 1008.04 1007.90 1007.72 1007.92 1008.33 1009.25 1009.83 1009.87 1009.38 1008.84 1008.65 1008.59 1008.55 1008.49 1008.44 1008.44 1008.35 1008.43 1008.61 1008.83 1009.09 1009.27 1009.44 1009.67 1009.97 1010.38 1010.62 1010.83 1011.16
1018.27 1017.70 1017.24 1016.59 1015.95 1015.35 1014.49 1013.74 1013.07 1012.27 1011.36 1010.39 1009.41 1008.42 1007.83 1007.69 1007.65 1007.81 1008.25 1007.71 1007.71 1007.74 1007.72 1007.70 1007.58 1007.53 1007.60 1007.73 1007.81 1007.86 1007.98 1008.18 1008.29 1008.36 1008.60 1008.78 1009.00 1009.24 1009.56 1009.74 1010.03 1010.37 1010.69
1018.91 1018.35 1017.92 1017.34 1016.65 1015.97 1015.32 1014.63 1013.80 1012.91 1012.05 1011.31 1010.55 1009.99 1009.30 1008.83 1008.50 1007.96 1007.72 1006.85 1006.13 1005.95 1006.00 1006.09 1006.07 1006.30 1006.52 1006.72 1006.94 1007.22 1007.40 1007.65 1007.70 1007.74 1007.95 1008.17 1008.44 1008.69 1008.92 1009.24 1009.50 1009.80 1010.12
1019.20 1018.59 1018.17 1017.66 1017.10 1016.58 1015.99 1015.32 1014.57 1013.76 1012.84 1011.91 1011.12 1010.53 1010.39 1010.07 1008.96 1007.87 1007.14 1006.22 1005.64 1004.93 1004.37 1004.47 1004.74 1004.79 1005.03 1005.47 1005.89 1006.18 1006.53 1006.61 1006.65 1006.89 1007.19 1007.53 1007.91 1008.16 1008.38 1008.53 1008.76 1009.14 1009.43
1019.16 1018.59 1018.09 1017.64 1017.13 1016.63 1016.13 1015.55 1014.80 1014.01 1013.20 1012.35 1011.42 1010.65 1010.00 1009.41 1008.64 1007.84 1006.81 1005.88 1004.57 1004.13 1003.46 1003.28 1003.03 1003.24 1003.39 1003.73 1004.26 1004.80 1005.17 1005.52 1005.65 1005.95 1006.30 1006.69 1007.08 1007.37 1007.69 1007.92 1008.30 1008.70 1009.18
1018.95 1018.36 1017.87 1017.42 1016.97 1016.47 1015.84 1015.24 1014.53 1013.76 1012.91 1012.08 1011.16 1010.15 1009.33 1008.61 1007.91 1006.91 1006.12 1005.72 1005.04 1004.31 1003.09 1002.48 1002.06 1001.91 1002.04 1002.18 1002.65 1003.07 1003.55 1003.99 1004.39 1004.87 1005.32 1005.83 1006.23 1006.66 1007.07 1007.33 1007.56 1008.09 1008.51
1018.57 1017.97 1017.50 1017.00 1016.48 1015.96 1015.35 1014.48 1013.79 1013.09 1012.36 1011.48 1010.45 1009.45 1008.57 1007.71 1006.84 1005.81 1005.03 1004.59 1004.08 1003.40 1002.78 1001.94 1001.01 1000.67 1000.70 1000.68 1001.07 1001.58 1001.94 1002.59 1003.08 1003.66 1004.24 1004.77 1005.35 1006.07 1006.30 1006.70 1006.89 1007.26 1007.71
1018.04 1017.45 1016.93 1016.38 1015.83 1015.23 1014.56 1013.87 1013.10 1012.26 1011.33 1010.42 1009.40 1008.45 1007.58 1006.58 1005.59 1004.79 1004.15 1003.38 1002.55 1002.32 1001.78 1001.14 1000.52 999.53 999.40 999.44 999.29 999.98 1000.45 1001.13 1001.81 1002.43 1003.20 1003.75 1004.27 1004.98 1005.44 1005.89 1006.18 1006.66 1007.11
1017.45 1016.93 1016.37 1015.76 1015.17 1014.56 1013.91 1013.21 1012.36 1011.37 1010.31 1009.33 1008.21 1007.16 1006.09 1004.98 1003.88 1002.95 1002.39 1001.87 1001.06 1000.60 1000.18 999.69 999.16 999.03 998.08 998.10 998.11 998.15 998.91 999.67 1000.85 1001.43 1002.08 1002.82 1003.38 1003.93 1004.49 1004.98 1005.45 1005.85 1006.26
Wind_Speed
5 3 3 4 5 4 4 5 5 4 5 5 7 8 9 8 7 7 9 9 7 7 6 6 7 4 4 4 4 5 6 6 8 5 4 3 4 5 4 2 3 4 4
5 4 5 5 5 5 5 5 3 5 5 5 7 8 9 8 7 8 10 8 5 7 7 5 7 4 7 6 4 7 7 7 6 11 3 3 5 3 4 3 3 3 4
5 4 5 6 6 6 6 4 4 5 5 6 6 8 9 8 7 8 9 10 8 7 7 7 8 7 8 6 6 6 7 6 7 5 5 2 3 2 3 3 3 3 4
5 5 5 7 7 6 5 5 5 4 5 6 6 8 8 8 7 5 7 9 10 9 9 8 9 9 10 8 7 8 7 6 5 6 6 5 4 2 3 3 3 2 2
6 5 7 7 6 6 5 5 6 5 5 5 6 7 7 5 5 7 7 9 10 11 9 8 8 11 16 12 5 6 6 6 5 6 6 3 3 3 4 1 3 1 2
6 7 6 6 5 6 6 6 6 6 6 5 6 6 7 5 9 12 10 9 10 10 9 7 6 6 5 1 7 8 7 7 7 4 3 5 6 3 3 4 4 3 4
7 7 7 6 6 7 6 5 6 7 5 7 7 6 8 7 10 11 11 7 9 10 8 6 4 2 3 3 4 3 2 6 5 4 5 4 3 5 2 3 6 4 4
7 8 7 6 7 6 6 7 6 4 6 6 7 6 7 8 9 11 10 7 7 8 9 6 3 2 1 4 4 4 2 2 4 7 6 4 5 4 5 3 6 5 2
10 10 9 6 7 7 8 9 6 4 5 6 5 6 7 8 8 10 8 6 6 5 2 1 2 1 4 5 3 2 1 3 2 1 3 6 8 8 6 4 5 5 2
11 11 9 6 7 8 10 9 5 4 6 4 7 5 8 8 7 7 7 4 5 3 2 3 2 2 2 4 2 2 1 0 1 1 1 2 3 1 8 4 5 5 4
9 8 7 7 8 9 8 6 5 6 5 7 6 5 6 6 6 6 2 2 5 3 2 2 2 4 1 3 3 2 2 2 2 2 1 2 1 2 2 3 4 6 4
6 9 10 10 7 6 8 9 7 5 6 8 5 6 4 5 6 7 3 4 6 5 4 3 3 4 5 3 1 3 7 5 2 1 1 1 1 2 3 4 4 3 3
5 11 11 11 8 8 8 9 6 5 6 7 5 5 6 4 4 7 8 4 5 4 4 5 8 7 4 6 5 6 6 3 2 2 1 2 1 3 4 5 5 8 7
12 12 10 8 9 7 5 6 6 6 7 7 6 6 6 4 5 5 5 4 4 3 3 3 4 4 6 6 4 3 2 3 2 2 2 4 3 2 2 3 6 6 5
12 10 11 8 8 8 6 6 6 10 10 8 8 6 5 6 7 9 8 6 5 2 3 3 2 3 4 4 3 2 2 3 3 3 3 5 5 4 4 4 5 3 5
13 11 11 11 10 8 7 9 10 17 15 17 18 10 7 13 8 10 11 8 7 7 3 3 4 5 5 4 4 3 3 5 3 4 5 7 6 5 6 3 4 6 8
12 11 10 10 10 11 11 10 10 11 13 17 16 16 17 16 16 14 14 12 10 8 4 6 5 6 6 5 5 4 2 4 4 5 6 7 7 6 6 5 6 6 6
11 15 10 10 10 10 10 11 10 11 12 12 9 12 14 18 18 16 14 11 5 6 6 8 8 7 7 6 5 5 3 3 5 6 6 6 7 7 6 6 6 7 6
11 9 11 10 9 12 10 10 10 11 11 10 12 11 9 15 13 6 17 9 10 9 9 10 9 8 7 7 6 5 5 4 6 6 7 7 7 7 6 6 6 7 7
10 17 12 9 9 10 10 10 11 11 10 10 9 11 12 14 11 7 8 11 11 11 10 10 10 10 9 9 7 7 6 6 6 6 7 7 7 7 7 8 8 8 6
7 8 13 8 8 9 9 10 10 11 12 12 12 11 8 9 12 11 12 10 12 12 12 12 11 11 11 10 9 9 9 8 8 8 7 7 8 8 8 7 7 7 6
6 7 8 8 8 9 9 10 11 11 11 12 13 15 18 11 10 11 12 12 11 13 12 12 12 12 12 12 12 11 11 10 9 8 8 8 7 8 7 8 8 7 8
7 8 9 9 9 11 10 11 12 12 12 13 13 13 13 13 13 12 11 11 13 14 12 13 13 13 12 12 12 13 13 12 11 9 10 9 8 8 8 8 9 7 7
8 9 9 9 9 10 10 11 11 16 15 15 15 15 14 15 15 16 12 12 13 13 13 14 14 18 15 15 13 14 13 13 11 12 15 11 10 9 10 9 9 11 9
8 9 9 9 9 10 11 12 12 13 14 14 15 15 16 18 18 16 16 15 13 13 16 14 14 18 23 24 20 21 18 14 15 12 11 12 14 14 12 11 11 10 10
9 9 9 9 10 10 11 12 13 14 15 16 17 17 18 18 18 18 16 17 16 13 17 14 14 24 24 22 25 23 17 17 16 14 12 11 12 11 10 12 15 10 12
Wind_Direction
183 197 226 246 255 272 279 278 274 293 304 296 302 308 312 311 315 319 302 292 284 291 282 274 266 249 247 230 221 220 231 217 250 272 247 274 282 287 291 293 255 249 253
196 203 234 265 267 278 274 275 274 284 290 301 310 309 303 309 317 309 300 286 290 303 302 298 280 269 250 246 226 229 227 221 229 254 254 246 243 267 260 262 250 248 249
203 219 252 264 267 269 274 265 274 286 304 305 310 303 308 310 326 318 307 300 305 287 283 281 284 285 274 256 242 238 226 221 218 234 254 235 267 259 282 256 243 243 239
221 230 250 262 263 265 264 260 273 286 288 298 298 297 302 311 318 312 305 308 308 303 295 288 277 265 257 257 243 239 230 226 212 228 245 254 248 258 245 260 254 236 259
237 247 253 262 267 268 249 260 274 279 276 281 291 299 301 303 300 304 298 298 296 297 292 280 274 269 251 250 237 234 219 218 208 224 241 240 230 224 226 206 247 274 266
235 244 252 263 266 243 245 261 273 279 283 281 292 294 301 298 293 294 301 300 300 294 293 296 308 342 40 39 226 234 213 202 217 213 230 237 243 225 225 240 238 232 255
234 248 253 262 255 239 247 264 267 274 281 284 289 295 291 293 290 296 298 303 300 293 284 290 302 7 25 17 4 344 236 231 230 206 233 225 251 220 190 218 216 203 221
249 251 250 247 249 246 252 258 267 262 273 280 288 292 288 288 292 301 309 313 292 276 278 262 244 276 14 349 340 345 10 286 273 229 225 236 230 218 217 221 209 185 133
250 249 249 234 247 244 248 255 259 258 276 268 263 291 286 290 305 312 328 315 293 319 323 194 215 236 354 342 306 303 349 11 358 307 290 289 273 250 219 196 169 163 144
248 247 247 232 234 242 245 248 247 230 260 279 289 268 274 282 299 320 342 308 296 304 314 321 296 282 310 323 193 155 88 317 309 100 353 314 335 82 174 197 166 150 122
248 246 243 232 233 235 246 232 239 256 268 274 270 278 274 265 284 285 358 306 284 294 316 304 256 266 296 76 86 135 208 193 199 189 4 11 8 50 97 146 159 152 153
280 269 270 269 246 236 223 248 238 239 261 274 271 287 259 269 246 267 265 225 275 274 270 277 283 295 315 348 249 254 253 214 201 211 252 198 165 130 113 111 103 114 101
271 287 272 266 243 228 228 244 241 229 236 260 256 268 279 268 260 238 261 251 283 246 256 270 286 289 281 300 241 270 203 211 234 229 199 160 167 123 120 103 83 91 100
354 319 300 291 286 266 240 236 252 250 243 244 248 251 259 254 251 240 232 235 244 248 273 282 306 274 259 265 293 213 232 221 202 149 115 114 123 104 109 128 125 119 111
358 349 344 342 319 304 272 251 228 235 230 249 250 237 233 248 242 208 206 212 213 206 292 257 261 235 249 256 253 254 247 197 176 147 152 134 132 124 121 121 120 115 123
352 357 354 347 349 334 327 313 254 248 252 236 241 227 249 238 206 200 205 200 174 162 203 232 238 241 233 245 259 272 239 207 186 159 164 151 149 142 142 132 140 145 145
347 349 350 347 351 344 344 331 317 311 244 262 256 249 227 244 227 204 200 180 170 153 221 220 232 235 239 227 246 246 231 207 177 174 179 171 159 151 155 154 142 146 153
351 355 350 350 345 343 337 337 329 337 334 321 284 246 253 241 237 218 179 151 172 205 228 229 227 227 235 231 232 233 218 194 197 182 185 187 177 166 164 164 170 171 171
356 356 357 349 346 342 340 336 338 334 329 325 329 333 299 276 262 241 172 204 211 219 213 219 224 224 224 226 227 233 219 197 206 192 188 189 184 176 174 178 180 181 166
352 352 357 350 346 345 344 340 334 330 327 325 325 329 335 341 328 290 230 229 219 223 220 223 216 215 219 220 211 220 224 206 199 208 200 193 189 194 193 185 188 181 192
340 339 344 340 340 339 339 337 335 334 331 326 319 315 299 310 303 295 303 242 240 238 223 218 223 215 210 213 215 203 215 222 204 198 200 205 197 195 203 213 206 195 184
327 326 326 330 328 330 330 328 329 327 324 321 317 315 313 304 292 292 302 308 279 247 237 229 222 216 210 207 208 209 206 215 210 197 198 199 192 199 204 208 200 198 184
310 316 316 313 313 316 319 322 321 319 314 316 314 309 306 301 294 279 275 276 289 297 270 240 230 225 216 208 207 206 206 206 209 197 194 188 195 192 197 204 204 198 195
302 300 303 305 304 304 300 307 308 309 307 305 304 302 300 296 292 284 278 280 271 274 267 279 240 233 223 208 202 206 205 206 200 197 192 187 187 186 195 203 196 195 200
306 304 304 308 305 301 300 300 304 306 303 300 300 297 295 293 288 281 277 270 260 259 270 261 277 241 231 217 201 202 198 182 196 184 186 189 189 184 190 197 190 188 178
302 304 301 301 305 303 303 305 302 303 302 300 301 297 292 285 278 274 268 264 260 256 258 260 255 277 237 226 215 197 186 180 186 185 186 186 189 186 182 190 194 184 175